Regional Weather Roundup
Issued by NWS New Orleans/Baton Rouge, LA

Home | Current Version | Previous Version | Text Only | Print | Product List | Glossary On
Versions: 1 2 3 4 5 6 7 8 9 10 11 12 13 14 15 16 17 18 19 20 21 22 23 24 25 26 27 28 29 30 31 32 33 34 35 36 37 38 39 40 41 42 43 44 45 46 47 48 49 50
000
ASUS44 KLIX 231211
RWRLIX
NEW ORLEANS REGIONAL WEATHER ROUNDUP
NATIONAL WEATHER SERVICE NEW ORLEANS LA
700 AM CDT SAT MAY 23 2015

NOTE: "FAIR" INDICATES FEW OR NO CLOUDS BELOW 12,000 FEET WITH NO
      SIGNIFICANT WEATHER AND/OR OBSTRUCTIONS TO VISIBILITY.
      SKY/WX - SKY CONDITION AND SIGNIFICANT WEATHER.
      TMP - AIR TEMPERATURE.     DP    - DEWPOINT TEMPERATURE.
      RH  - RELATIVE HUMIDITY.   PRES  - PRESSURE.
      HI  - HEAT INDEX.          WCI   - WIND CHILL INDEX.

*  THESE STATIONS ARE NOT NWS OR FAA STATIONS AND ARE NOT UNDER
   NWS QUALITY CONTROL.

LAZ038-040-048-061>063-065>067-069-231300-
SOUTHEAST LOUISIANA

CITY           SKY/WX    TMP DP  RH WIND       PRES   REMARKS
N.O. AUDUBON     N/A     75  70  84 MISG        N/A
6HR MIN TEMP:  72; 6HR MAX TEMP:  76;

N.O. INTL ARPT MOSUNNY   75  68  78 E5        30.19R
6HR MIN TEMP:  72; 6HR MAX TEMP:  75;

N.O. LAKEFRONT SUNNY     78  68  71 E12       30.20R
6HR MIN TEMP:  76; 6HR MAX TEMP:  79;

SLIDELL        SUNNY     67  62  84 NE3       30.20R
6HR MIN TEMP:  66; 6HR MAX TEMP:  70;

BATON ROUGE    SUNNY     68  66  93 E6        30.20R
6HR MIN TEMP:  68; 6HR MAX TEMP:  71;

BOOTHVILLE     MOSUNNY   76  69  79 E5        30.20R
6HR MIN TEMP:  75; 6HR MAX TEMP:  76;

BELLE CHASSE   MOSUNNY   71  67  87 E3        30.19R
6HR MIN TEMP:  67; 6HR MAX TEMP:  71;

BOGALUSA*        N/A     65  60  84 N3        30.23R
6HR MIN TEMP:  64; 6HR MAX TEMP:  69;

GALLIANO*      SUNNY     74  70  87 CALM      30.19R
6HR MIN TEMP:  70; 6HR MAX TEMP:  76;

NEW ROADS*       N/A     69  68  96 CALM      30.20R
6HR MIN TEMP:  68; 6HR MAX TEMP:  71;

GONZALES*        N/A     70  70 100 CALM      30.19R
6HR MIN TEMP:  68; 6HR MAX TEMP:  73;

HAMMOND*       SUNNY     70  61  73 E5        30.22R
HOUMA*         SUNNY     72  70  94 CALM      30.18R
PORT FOURCHON* SUNNY     79  70  73 E9        30.18S

$$

MSZ070-080>082-231300-
SOUTHERN MISSISSIPPI

CITY           SKY/WX    TMP DP  RH WIND       PRES   REMARKS
MCCOMB         SUNNY     65  59  81 E5        30.23R
6HR MIN TEMP:  63; 6HR MAX TEMP:  69;

GULFPORT       SUNNY     70  59  68 CALM      30.21R
6HR MIN TEMP:  67; 6HR MAX TEMP:  73;

BILOXI         SUNNY     69  60  71 E6        30.21R
6HR MIN TEMP:  67; 6HR MAX TEMP:  73;

PASCAGOULA     SUNNY     67  59  75 CALM      30.22R
6HR MIN TEMP:  61; 6HR MAX TEMP:  70;

STENNIS ARPT*  SUNNY     66  55  68 MISG      30.22

$$

COASTAL OBSERVATIONS
LAKE AND NEARSHORE STATIONS

STATION/POSITION TIME  TEMP    WIND        PRES    WAVE
                       AIR SEA DIR/SP/G            HT/PER
                 (UTC) (F)     (DEG/KT/KT) (MB)    (FT/S)
PASCAGOULA       1100   70      60/  7/  9 1022.0
WAVELAND YACHT   1100   69 76   60/  8/ 10 1022.6
GRAND ISLE       1100   78 81  100/  7/ 11 1021.6
SOUTHWEST PASS   1100   78 74   90/ 11/ 12 1022.1
NEW CANAL        1100   76 81   80/  5/  9 1021.3
SHELL BEACH      1100   78 82   90/  8/ 10 1021.4

OFFSHORE STATIONS

STATION/POSITION TIME  TEMP    WIND        PRES    WAVE
                       AIR SEA DIR/SP/G            HT/PER
                 (UTC) (F)     (DEG/KT/KT) (MB)    (FT/S)
64 S DAUPHIN ISL 1150   79 80   90/ 12/ 14 1022.8    2/ 3

$$




USA.gov is the U.S. government's official web portal to all federal, state and local government web resources and services.